Terminal Aerodrome Forecast
Issued by NWS Sioux Falls, SD

Home | Current Version | Previous Version | Graphics & Text | Print | Product List | Glossary On
Versions: 1 2 3 4 5 6 7 8 9 10 11 12 13 14 15 16
220
FTUS43 KFSD 222320
TAFFSD
TAF
KFSD 222320Z 2300/2324 17015G23KT P6SM SCT045 SCT250
     FM230900 17014KT P6SM -TSRA OVC035CB
     FM231100 17010KT P6SM -SHRA OVC025
     FM231500 18012KT P6SM OVC015
     FM231900 20010KT P6SM SHRA VCTS BKN035CB=

USA.gov is the U.S. government's official web portal to all federal, state and local government web resources and services.